#timestamp,LO_Frequency,Hit,StdDev 
1569999615.1,286046996.7,Y
1569999616.0,286046996.7,P
1569999635.8,286046999.5,N
1569999655.7,286046999.3,N
1569999675.5,286046998.7,N
1569999695.3,286046998.7,N
1569999715.2,286046998.7,N
1569999735.0,286046998.5,N
1569999735.9,286046998.5,N
1569999755.7,286046998.5,N
1569999775.6,286046998.9,N
1569999795.4,286046998.8,N
1569999815.3,286046998.2,N
1569999835.1,286046998.2,N
1569999836.0,286046998.2,N
1569999855.8,286047000.3,N
1569999875.7,286047000.7,N
1569999895.5,286047000.3,N
1569999915.4,286046998.2,N
1569999935.2,286046998.4,N
1569999955.0,286046999.1,N
1569999955.9,286046999.1,N
1569999975.8,286046999.6,N
1569999995.6,286046996.8,Y
1570000015.4,286046999.1,P
1570000035.3,286046998.8,P
1570000055.1,286046999.6,P
1570000075.9,286046998.7,Y
1570000095.7,286046999.3,P
1570000115.5,286046999.4,P
1570000135.4,286046999.0,P
1570000155.2,286046998.3,Y
1570000175.1,286047000.8,P
1570000176.0,286047000.8,N
1570000195.8,286046998.6,N
1570000215.6,286047000.7,N
1570000235.5,286047000.8,N
1570000255.3,286046998.1,N
1570000275.2,286046998.2,N
1570000295.9,286047000.7,N
1570000315.7,286046999.2,N
1570000335.6,286046999.1,N
1570000355.4,286046996.9,N
1570000375.2,286046997.1,N
1570000395.1,286046999.4,N
1570000396.0,286046999.4,N
1570000415.8,286046999.4,N
1570000435.7,286046998.8,N
1570000455.5,286047001.1,N
1570000475.3,286047002.7,N
1570000495.2,286047000.9,N
1570000515.0,286046998.2,N
1570000515.9,286046998.2,N
1570000535.8,286047001.2,N
1570000555.6,286047000.5,N
1570000575.4,286047000.2,N
1570000595.3,286046999.7,N
1570000615.1,286047002.6,N
1570000635.8,286047002.3,N
1570000655.7,286047002.4,N
1570000675.5,286047002.2,N
1570000695.4,286047002.6,N
1570000715.2,286047001.5,N
1570000735.0,286047001.3,N
1570000735.9,286047001.3,N
1570000755.8,286047004.0,N
1570000775.6,286047001.3,N
1570000795.4,286047002.3,N
1570000815.3,286047002.1,N
1570000835.1,286046999.8,N
1570000855.9,286046999.8,N
1570000875.7,286047002.7,N
1570000895.5,286047002.6,N
1570000915.4,286047000.1,N
1570000935.2,286047002.7,N
1570000955.0,286047002.3,N
1570000956.0,286047002.3,N
1570000975.8,286047002.0,N
1570000995.6,286047000.1,N
1570001015.5,286046999.7,N
1570001035.3,286047002.6,N
1570001055.1,286047001.5,N
1570001075.9,286047002.2,N
1570001095.7,286047001.4,N
1570001115.6,286047001.9,N
1570001135.4,286047002.4,N
1570001155.2,286046999.8,N
1570001175.1,286047002.8,N
1570001176.0,286047002.8,N
1570001195.8,286047002.7,N
1570001215.6,286047000.1,N
1570001235.5,286047001.8,N
1570001255.3,286047004.4,Y
1570001275.2,286046998.1,P
1570001295.9,286047002.8,N
1570001315.7,286046999.9,N
1570001335.6,286047002.7,N
1570001355.4,286047002.2,N
1570001375.3,286047001.9,N
1570001395.1,286047001.9,N
1570001396.0,286047001.9,N
1570001415.8,286047002.1,N
1570001435.7,286047002.6,N
1570001455.5,286047001.9,N
1570001475.3,286047001.4,N
1570001495.2,286046999.9,N
1570001515.0,286047002.3,N
1570001515.9,286047002.3,N
1570001535.8,286047002.2,N
1570001555.6,286047002.3,N
1570001575.4,286047001.9,N
1570001595.3,286047002.2,N
1570001615.1,286047002.2,N
1570001635.9,286047001.6,N
1570001655.7,286047004.1,Y
1570001675.5,286047000.2,P
1570001695.4,286046998.9,N
1570001715.2,286047000.7,N
1570001735.0,286047000.1,N
1570001736.0,286047000.1,N
1570001755.8,286047000.0,N
1570001775.6,286047002.5,Y
1570001795.5,286046999.9,P
1570001815.3,286047001.0,P
1570001835.1,286046998.5,P
1570001855.9,286047000.8,N
1570001875.7,286046998.3,N
1570001895.6,286046999.0,N
1570001915.4,286046999.4,N
1570001935.2,286046998.7,N
1570001955.1,286047000.7,N
1570001956.0,286047000.7,N
1570001975.8,286046999.4,N
1570001995.6,286046999.0,N
1570002015.5,286046999.0,N
1570002035.3,286047001.1,N
1570002055.2,286047001.2,N
1570002075.9,286046998.6,N
1570002095.7,286047000.7,N
1570002115.6,286047001.2,N
1570002135.4,286046998.4,N
1570002155.2,286046997.0,N
1570002175.1,286046999.4,N
1570002176.0,286046999.4,N
1570002195.8,286046998.9,N
1570002215.7,286047000.9,N
1570002235.5,286047000.4,N
1570002255.3,286046999.9,N
1570002275.2,286047000.5,N
1570002295.0,286047002.8,N
1570002295.9,286047002.8,N
1570002315.8,286047000.5,N
1570002335.6,286047000.0,N
1570002355.4,286046998.6,N
1570002375.3,286046998.8,N
1570002395.1,286046998.9,N
1570002415.8,286046999.0,N
1570002435.7,286046998.4,N
1570002455.5,286046999.4,N
1570002475.4,286046999.1,N
1570002495.2,286046996.6,N
1570002515.0,286046999.5,N
1570002515.9,286046999.5,N
1570002535.8,286046997.6,N
1570002555.6,286046997.1,N
1570002575.5,286046996.9,N
1570002595.3,286046999.2,N
1570002615.1,286046999.6,N
1570002635.9,286046998.4,N
1570002655.7,286046996.5,N
1570002675.5,286046998.7,N
1570002695.4,286046998.8,N
1570002715.2,286046998.9,N
1570002735.1,286046996.8,N
1570002736.0,286046996.8,N
1570002755.8,286046997.2,N
1570002775.6,286046997.2,N
1570002795.5,286046994.9,Y
1570002815.3,286046997.2,P
1570002835.2,286046993.4,P
1570002855.9,286046995.5,N
1570002875.7,286046997.7,N
1570002895.6,286046997.1,N
1570002915.4,286046997.9,N
1570002935.2,286046997.5,N
1570002955.1,286046995.6,N
1570002956.0,286046995.6,N
1570002975.8,286046993.4,Y
1570002995.7,286046997.5,P
1570003015.5,286046996.6,P
1570003035.3,286046997.6,P
1570003055.2,286046995.3,Y
1570003075.0,286046998.8,P
1570003075.9,286046998.8,N
1570003095.8,286046998.5,N
1570003115.6,286047000.2,N
1570003135.4,286046999.8,N
1570003155.3,286047002.0,N
1570003175.1,286047001.9,N
1570003195.8,286046999.9,N
